Regional Weather Roundup
Issued by NWS

Home | Current Version | Previous Version | Text Only | Print | Product List | Glossary On
Versions: 1 2 3 4 5 6 7 8 9 10 11 12 13 14 15 16 17 18 19 20 21 22 23 24 25 26 27 28 29 30 31 32 33 34 35 36 37 38 39 40 41 42 43 44 45 46 47 48 49 50
081
ASUS43 KMPX 271701
RWRMN
WEATHER ROUNDUP FOR MINNESOTA
NATIONAL WEATHER SERVICE TWIN CITIES/CHANHASSEN MN
1200 PM CDT SAT AUG 27 2016


NOTE: "FAIR" INDICATES FEW OR NO CLOUDS BELOW 12,000 FEET WITH NO
SIGNIFICANT WEATHER AND/OR OBSTRUCTIONS TO VISIBILITY. N/A MEANS
CURRENT SKY AND/OR WEATHER CONDITIONS ARE NOT AVAILABLE.

MNZ060>063-068>070-271800-
   Twin Cities Metro

CITY           SKY/WX    TMP DP  RH WIND       PRES   REMARKS
TWIN CITIES    CLOUDY    67  60  78 E10       30.02F
ST PAUL        CLOUDY    66  61  84 SE8       30.03F
CRYSTAL        CLOUDY    66  60  81 E7        30.01F
BLAINE         PTSUNNY   64  64 100 E5        30.03F
LAKEVILLE      CLOUDY    61  61 100 E6        30.03S
EDEN PRAIRIE   CLOUDY    67  61  81 E9        30.01F
LAKEVILLE      CLOUDY    61  61 100 E6        30.03S
SOUTH ST PAUL  CLOUDY    65  61  88 E5        30.03F
LAKE ELMO      PTSUNNY   64  63  94 E8        30.04F
$$
MNZ001>005-007-008-013>017-022>024-027-028-271800-
   Northwest Minnesota

CITY           SKY/WX    TMP DP  RH WIND       PRES   REMARKS
BEMIDJI        LGT RAIN  63  57  82 SE8       30.01F
HALLOCK        CLOUDY    63  59  88 S12       29.93F
ROSEAU         RAIN      59  54  82 S13       29.96S
WARROAD        RAIN      59  55  88 S10       29.98F
THIEF RVR FALL RAIN      58  57  97 SE14      29.98F
CROOKSTON      LGT RAIN  57  57 100 SE9       29.96F
FOSSTON        HVY RAIN  55  54  94 CALM      30.02F
DETROIT LAKES  MOSUNNY   68  57  68 S12       30.00S
MOORHEAD       PTSUNNY   70  61  73 S14       29.95F
PARK RAPIDS    CLOUDY    65  56  72 SE13      30.00F
MAHNOMEN       CLOUDY    61  55  79 N12       29.99F
$$
MNZ006-009>011-018-025>026-271800-
   North Central Minnesota

CITY           SKY/WX    TMP DP  RH WIND       PRES   REMARKS
BAUDETTE       LGT RAIN  60  59  96 S7        30.01S FOG
FLAG ISLAND    RAIN      63  61  94 S6        29.97S
INTL FALLS     CLOUDY    70  56  61 S8        30.01F
WASKISH        CLOUDY    66  57  72 SW6       30.01S
BIG FORK       CLOUDY    64  55  72 S5        30.04F
LONGVILLE      CLOUDY    64  59  82 SE6       30.03S
GRAND RAPIDS   CLOUDY    67  56  67 S12G17    30.05F
ORR            CLOUDY    64  54  68 SE6       30.03S
COOK           CLOUDY    64  55  72 S3        30.06F
WALKER         CLOUDY    63  57  80 S3        30.03F
$$
MNZ012-019>021-037-271800-
   Northeast Minnesota

CITY           SKY/WX    TMP DP  RH WIND       PRES   REMARKS
DULUTH         CLOUDY    62  58  86 E6        30.06F
ELY            PTSUNNY   66  52  59 S7        30.07F
HIBBING        CLOUDY    64  54  69 S8        30.05F
EVELETH        MOSUNNY   66  52  62 S12       30.07S
DULUTH HARBOR  RAIN      63  59  88 NE6       30.06F
TWO HARBORS    LGT RAIN  66  61  82 CALM      30.06F
SILVER BAY     LGT RAIN  64  59  82 CALM      30.07S
G MARAIS ARPRT MOSUNNY   64  52  63 SE5       30.12S
$$
MNZ029>031-032-039>041-046>048-054>057-064-271800-
   West Central Minnesota

CITY           SKY/WX    TMP DP  RH WIND       PRES   REMARKS
FERGUS FALLS   CLOUDY    70  57  64 S17       30.01S
WHEATON        MOSUNNY   73  63  68 S10G16    30.00F
MORRIS         PTSUNNY   72  59  64 S13G18    29.99F
ALEXANDRIA     CLOUDY    67  56  67 S12       30.03F
ELBOW LAKE     PTSUNNY   68  58  68 S14       30.01F
WADENA         CLOUDY    66  59  77 CALM      30.01F
GLENWOOD       MOSUNNY   68  55  64 SE9       30.03F
APPLETON       PTSUNNY   68  59  73 S9        30.00F
BENSON         CLOUDY    66  55  68 SW7       30.02F
ORTONVILLE     PTSUNNY   66  57  72 S8        30.00S
MADISON        SUNNY     64  57  77 SE12      30.01F
WILLMAR        CLOUDY    64  57  77 SE6       30.04S
$$
MNZ033>034-036-042>043-049>051-058-059-271800-
   Central Minnesota

CITY           SKY/WX    TMP DP  RH WIND       PRES   REMARKS
ST CLOUD       CLOUDY    65  61  87 SE12      30.01F
SAUK CENTRE    CLOUDY    65  57  75 SE10      30.03F
PAYNESVILLE    CLOUDY    65  59  81 SE6       30.04R
AITKIN         CLOUDY    72  55  56 S9        30.02F
PINE RIVER     CLOUDY    66  57  72 S10       30.06S
BRAINERD       CLOUDY    68  58  70 S10       30.03F
STAPLES        CLOUDY    66  55  68 S9        30.03S
LONG PRAIRIE   CLOUDY    66  55  68 SE7       30.03F
LITTLE FALLS   CLOUDY    64  57  77 S5        30.03S
LITCHFIELD     PTSUNNY   64  61  88 SE7       30.02R
BUFFALO        DRIZZLE   62  59  89 E8        30.01F
MAPLE LAKE     CLOUDY    64  61  88 SE7       30.01F
HUTCHINSON     CLOUDY    66  62  87 SE14      30.01F
$$
MNZ037-044-045-052-053-271800-
   East Central Minnesota

CITY           SKY/WX    TMP DP  RH WIND       PRES   REMARKS
PRINCETON      CLOUDY    66  63  88 SE9       30.01F
MORA           LGT RAIN  63  59  88 SE8       30.05F
CAMBRIDGE      LGT RAIN  64  57  77 SE7       30.01F
RUSH CITY      LGT RAIN  63  60  91 SE5       30.04F
MOOSE LAKE     CLOUDY    63  57  82 CALM      30.04F
HINCKLEY       CLOUDY    64  61  88 SE5       30.05F
CLOQUET        DRIZZLE   61  57  88 SE3       30.06F
MCGREGOR       MOSUNNY   66  57  72 S10G16    30.05S
$$
MNZ071>073-080-081-089-090-097-098-271800-
   Southwest Minnesota

CITY           SKY/WX    TMP DP  RH WIND       PRES   REMARKS
MONTEVIDEO     CLOUDY    64  61  88 S3        30.03F
GRANITE FALLS  CLOUDY    65  60  83 E3        30.03F
CANBY          CLOUDY    64  60  88 E7        30.02F
MARSHALL       CLOUDY    62  60  93 SE10      30.02F
REDWOOD FALLS  CLOUDY    63  59  87 E8        30.01S
OLIVIA         CLOUDY    66  59  77 SE9       30.01S
PIPESTONE      CLOUDY    63  61  94 E1        30.02F
WINDOM         CLOUDY    64  61  88 S5        30.02F FOG
WORTHINGTON    CLOUDY    64  62  93 SW6       30.02F FOG
JACKSON          N/A     63  61  94 SE3       30.02F
TRACY          CLOUDY    63  62  95 SE6       30.01F FOG
$$
MNZ065>067-074>077-082>085-091>093-271800-
   South Central Minnesota

CITY           SKY/WX    TMP DP  RH WIND       PRES   REMARKS
MANKATO        CLOUDY    63  59  88 SE9       30.01F
NEW ULM          N/A     63  63 100 SE8       30.00F
ST JAMES       CLOUDY    57  55  94 SE5       30.02S FOG
FAIRMONT       CLOUDY    63  62  97 SW7       30.02F
GLENCOE        CLOUDY    64  64 100 E9        30.00F
FARIBAULT      CLOUDY    63  63 100 E5        30.03F FOG
OWATONNA       LGT RAIN  64  61  88 E6        30.02F
WASECA         CLOUDY    63  61  94 SE6       30.04S FOG
ALBERT LEA     CLOUDY    64  63  94 S6        30.02F FOG
$$
MNZ078>079-086>088-094>096-271800-
   Southeast Minnesota

CITY           SKY/WX    TMP DP  RH WIND       PRES   REMARKS
ROCHESTER      CLOUDY    65  63  93 SE9       30.03F
RED WING       HVY RAIN  63  61  94 CALM      30.02F
STANTON        CLOUDY    63  61  94 E6        30.01F
DODGE CENTER   CLOUDY    64  63  94 SE3       30.03F FOG
WINONA         CLOUDY    64  61  88 SE9       30.03F
AUSTIN         CLOUDY    64  61  88 S5        30.02F FOG
PRESTON        CLOUDY    64  60  88 SE7       30.04S
$$
ABBREVIATIONS USED IN REMARKS
   TC - TEMPERATURES IN CELSIUS
  WCI - WIND CHILL INDEX
   HX - HEAT INDEX
  VSB - VISIBILITY
$$




USA.gov is the U.S. government's official web portal to all federal, state and local government web resources and services.